This demonstration page uses our WeatherBlox Daily Observations layout. Learn more.

Left ArrowRight Arrow

44.8408, -93.29828

Hourly Observations for December 14, 2019

Temp ( °F °C ) Dew Point ( °F °C ) Humidity (%) Winds ( mph kmh ) Pressure ( in mb ) Visibility ( mi km ) Precip ( " mm )
12:53 am 00:53 Cloudy with Mist and Fog 18 -7.8 14 -10 84 84 NW 12 19 29.90 1012 4 6 0.00 0.00
1:53 am 01:53 Cloudy with Mist and Fog 18 -7.8 15 -9.4 88 88 NW 8 13 29.90 1013 4 6 0.00 0.00
2:06 am 02:06 Cloudy with Mist and Fog 18 -7.8 15 -9.4 88 88 WNW 9 15 29.93 1014 4 6 0.00 0.00
2:53 am 02:53 Cloudy with Mist and Fog 19 -7.2 15 -9.4 84 84 NW 8 13 29.91 1013 5 8 0.00 0.00
3:53 am 03:53 Cloudy with Mist and Fog 19 -7.2 15 -9.4 84 84 NW 10 17 29.89 1012 6 10 0.00 0.00
4:53 am 04:53 Cloudy 19 -7.2 14 -10 81 81 NW 10 17 29.90 1012 7 11 0.00 0.00
5:13 am 05:13 Cloudy 19 -7.2 13 -10.6 77 77 NW 12 19 29.93 1014 8 13 0.00 0.00
5:53 am 05:53 Cloudy 19 -7.2 13 -10.6 77 77 NW 12 19 29.91 1013 9 14 0.00 0.00
6:53 am 06:53 Cloudy 18 -7.8 11 -11.7 74 74 NW 14 22 29.91 1013 10 16 0.00 0.00
7:45 am 07:45 Cloudy 17 -8.3 11 -11.7 77 77 NW 10 17 29.95 1014 9 14 0.00 0.00
7:53 am 07:53 Cloudy 17 -8.3 11 -11.7 77 77 NW 12 19 29.93 1013 9 14 0.00 0.00
8:25 am 08:25 Cloudy with Light Snow 16 -8.9 10 -12.2 77 77 NW 12 19 29.97 1015 3 5 0.00 0.00
8:53 am 08:53 Cloudy with Light Snow 15 -9.4 9 -12.8 77 77 NW 14 22 29.95 1014 3 5 0.00 0.00
9:53 am 09:53 Cloudy with Light Snow 15 -9.4 8 -13.3 74 74 NW 14 22 29.96 1015 5 8 0.00 0.00
10:53 am 10:53 Cloudy with Light Snow 14 -10 7 -13.9 73 73 NW 13 20 29.96 1015 5 8 0.00 0.00
11:53 am 11:53 Mostly Cloudy 13 -10.6 6 -14.4 74 74 WNW 14 22 29.95 1014 9 14 0.00 0.00
12:03 pm 12:03 Cloudy 14 -10 6 -14.4 71 71 WNW 13 20 29.98 1015 10 16 0.00 0.00
12:30 pm 12:30 Partly Cloudy 13 -10.6 5 -15 70 70 NW 14 22 30.00 1016 10 16 0.00 0.00
12:53 pm 12:53 Mostly Sunny 13 -10.6 4 -15.6 67 67 WNW 14 22 29.96 1015 10 16 0.00 0.00
1:53 pm 13:53 Mostly Sunny 13 -10.6 3 -16.1 64 64 NNW 13 20 29.96 1015 10 16 0.00 0.00
2:53 pm 14:53 Sunny 12 -11.1 2 -16.7 64 64 NW 10 17 29.98 1015 10 16 0.00 0.00
3:53 pm 15:53 Partly Cloudy 11 -11.7 1 -17.2 64 64 NW 15 24 30.00 1016 10 16 0.00 0.00
4:53 pm 16:53 Mostly Clear 8 -13.3 0 -17.8 69 69 NW 9 15 30.01 1016 10 16 0.00 0.00
5:53 pm 17:53 Mostly Clear 8 -13.3 -1 -18.3 66 66 NW 10 17 30.03 1017 10 16 0.00 0.00
6:53 pm 18:53 Clear 6 -14.4 -2 -18.9 69 69 NW 9 15 30.04 1017 10 16 0.00 0.00
7:53 pm 19:53 Clear 5 -15 -3 -19.4 69 69 WNW 7 11 30.06 1018 10 16 0.00 0.00
8:53 pm 20:53 Clear 4 -15.6 -4 -20 69 69 WNW 7 11 30.07 1018 10 16 0.00 0.00
9:53 pm 21:53 Mostly Clear 3 -16.1 -4 -20 72 72 WNW 7 11 30.09 1019 10 16 0.00 0.00
10:53 pm 22:53 Partly Cloudy 3 -16.1 -4 -20 72 72 NW 7 11 30.09 1019 10 16 0.00 0.00
11:53 pm 23:53 Mostly Clear 2 -16.7 -5 -20.6 72 72 WNW 6 9 30.11 1020 10 16 0.00 0.00

Powered by AerisWeather